Temperature
2 2 3 3 3 3 3 3 3 3 3 3 3 4 4 4 4 4 4 4 4 4 4 4 4 5 5 5 5 5 5 5 5 6 6 6 6 7 7 7 7 7 7
1 2 2 2 2 2 2 2 2 3 3 3 3 3 3 3 3 3 3 3 3 3 3 4 4 4 4 4 4 4 4 4 4 4 5 5 5 5 6 6 6 6 6
1 2 1 2 2 2 2 2 2 2 2 2 2 2 2 2 3 3 3 3 3 3 3 3 3 3 3 3 3 3 3 3 3 3 3 3 3 4 5 5 5 5 6
1 1 1 1 2 2 2 2 2 2 2 2 2 2 2 2 2 2 2 2 2 2 2 2 2 3 3 3 2 2 2 2 3 3 3 3 3 3 3 4 5 5 5
1 1 1 1 1 1 1 1 1 1 1 1 1 1 1 1 1 1 2 2 2 2 2 2 2 2 2 2 2 2 1 2 2 2 2 2 2 2 2 2 3 4 4
1 1 1 0 0 1 1 1 1 1 1 1 1 1 1 1 1 1 1 1 1 1 1 1 1 1 1 1 1 1 1 1 1 1 1 1 1 1 1 1 2 3 3
1 0 0 -0 -0 -0 0 0 0 0 0 0 0 0 0 0 0 0 0 1 1 1 1 0 0 1 1 1 1 0 0 0 0 1 1 1 1 1 1 1 1 1 2
0 0 0 -0 -1 -1 -1 -0 -0 0 -0 -0 -0 -0 -0 -0 -0 -0 -0 -0 -0 -0 0 -0 -0 -0 -0 -0 -0 -0 -0 -0 -0 0 0 0 0 0 0 0 0 0 0
0 -0 -0 -0 -1 -1 -1 -1 -1 -0 -0 -1 -1 -1 -1 -1 -1 -1 -1 -1 -1 -1 -1 -1 -1 -1 -1 -1 -1 -1 -1 -1 -1 -0 -0 -0 0 -0 0 0 0 -0 -1
-0 -0 -1 -1 -1 -1 -1 -1 -1 -1 -1 -1 -1 -1 -1 -1 -1 -1 -1 -1 -1 -1 -1 -1 -1 -1 -1 -1 -1 -1 -1 -1 -1 -1 -1 -1 -0 -0 -0 -0 -0 -0 -1
-0 -1 -1 -1 -1 -2 -2 -2 -2 -1 -1 -1 -2 -2 -2 -2 -2 -2 -2 -2 -2 -2 -2 -2 -2 -2 -2 -2 -2 -2 -2 -2 -1 -1 -1 -1 -1 -1 -1 -1 -1 -1 -1
-1 -1 -1 -2 -2 -2 -2 -2 -2 -2 -2 -2 -2 -2 -2 -2 -2 -2 -2 -3 -3 -3 -3 -3 -3 -3 -3 -3 -3 -3 -2 -2 -2 -2 -2 -2 -2 -1 -1 -1 -1 -1 -1
-1 -1 -2 -2 -2 -3 -3 -3 -3 -2 -2 -3 -3 -3 -3 -3 -3 -3 -3 -3 -3 -3 -3 -3 -3 -3 -3 -3 -3 -3 -3 -3 -3 -2 -2 -2 -2 -2 -2 -2 -2 -2 -2
-2 -2 -2 -3 -3 -3 -3 -3 -3 -3 -3 -3 -3 -4 -4 -4 -4 -4 -4 -4 -4 -4 -4 -4 -4 -4 -4 -4 -4 -4 -4 -4 -3 -3 -3 -2 -2 -2 -2 -2 -2 -2 -2
-3 -3 -3 -3 -3 -4 -4 -4 -3 -4 -4 -4 -4 -4 -4 -5 -5 -5 -5 -5 -5 -5 -5 -5 -5 -5 -5 -4 -4 -4 -4 -4 -4 -4 -3 -3 -3 -3 -3 -3 -3 -3 -3
-4 -4 -4 -4 -4 -4 -4 -4 -4 -4 -4 -4 -5 -5 -5 -5 -5 -5 -5 -5 -5 -5 -5 -5 -5 -5 -5 -5 -5 -5 -5 -5 -4 -4 -4 -4 -3 -3 -3 -3 -3 -3 -3
-5 -5 -5 -5 -5 -5 -5 -5 -5 -5 -5 -5 -5 -5 -6 -6 -6 -6 -6 -6 -6 -6 -6 -6 -6 -6 -6 -5 -5 -5 -5 -5 -5 -5 -4 -4 -4 -4 -3 -3 -4 -3 -3
-5 -5 -5 -5 -5 -5 -5 -5 -5 -6 -6 -6 -6 -6 -6 -6 -6 -6 -6 -6 -6 -6 -6 -6 -6 -6 -6 -6 -6 -6 -6 -5 -5 -5 -5 -5 -4 -4 -4 -4 -4 -4 -4
-5 -6 -5 -5 -5 -5 -6 -6 -6 -6 -6 -6 -7 -7 -7 -7 -7 -7 -7 -7 -7 -7 -7 -7 -7 -7 -6 -6 -6 -6 -6 -6 -6 -6 -5 -5 -5 -5 -5 -5 -5 -4 -4
-6 -6 -6 -6 -6 -6 -6 -6 -7 -7 -7 -7 -7 -7 -7 -7 -7 -7 -7 -7 -7 -7 -7 -7 -7 -7 -7 -7 -7 -7 -7 -7 -6 -6 -6 -6 -6 -6 -5 -5 -5 -5 -5
-6 -6 -7 -6 -6 -7 -7 -7 -7 -7 -7 -8 -8 -8 -8 -8 -8 -8 -8 -8 -8 -7 -7 -8 -7 -7 -7 -7 -7 -7 -7 -7 -7 -7 -7 -6 -6 -6 -6 -6 -6 -6 -6
-7 -7 -7 -7 -7 -7 -8 -8 -8 -8 -8 -8 -8 -8 -8 -8 -8 -8 -8 -8 -8 -8 -8 -8 -8 -8 -8 -8 -8 -8 -8 -7 -7 -7 -7 -7 -7 -7 -6 -7 -7 -6 -7
-7 -7 -8 -8 -8 -8 -8 -8 -8 -8 -8 -8 -9 -9 -9 -9 -9 -9 -8 -8 -8 -9 -8 -8 -8 -8 -8 -8 -8 -8 -8 -8 -8 -8 -8 -7 -7 -7 -7 -7 -7 -7 -7
-8 -8 -8 -8 -8 -8 -8 -9 -9 -9 -9 -9 -9 -9 -9 -9 -9 -9 -9 -9 -9 -9 -9 -9 -9 -9 -9 -9 -9 -9 -9 -8 -8 -8 -8 -8 -8 -8 -8 -8 -8 -8 -8
-8 -8 -9 -9 -9 -9 -9 -9 -9 -9 -9 -9 -10 -10 -10 -10 -10 -10 -9 -9 -9 -9 -9 -9 -9 -9 -9 -9 -9 -9 -9 -9 -8 -8 -8 -9 -9 -9 -8 -8 -8 -9 -8
-9 -9 -9 -9 -9 -9 -9 -9 -10 -10 -10 -10 -10 -10 -11 -11 -11 -10 -10 -10 -10 -10 -10 -10 -10 -10 -9 -9 -9 -9 -9 -9 -9 -9 -9 -9 -9 -9 -9 -9 -9 -9 -9
Wind_Speed
7 5 5 4 4 3 4 5 4 4 3 2 2 2 2 1 1 0 0 0 0 0 1 1 2 2 1 1 2 2 2 2 2 1 2 2 1 1 1 0 1 1 1
6 5 5 5 5 5 5 5 5 4 4 3 2 2 2 2 2 2 1 1 0 0 0 1 1 1 1 1 1 2 1 1 2 1 0 1 2 1 1 1 1 0 2
9 8 7 7 6 6 6 6 6 5 5 4 2 1 1 1 1 2 1 1 1 1 1 1 1 0 0 1 1 1 1 1 1 1 0 0 2 2 2 1 1 0 0
7 7 7 6 6 6 5 5 5 6 5 5 4 4 4 4 3 3 2 2 1 2 2 2 1 1 1 1 2 1 1 1 1 1 1 1 1 1 2 2 1 1 1
7 7 7 7 5 4 4 4 4 6 5 5 6 5 4 4 2 2 3 3 2 2 3 2 2 2 1 1 1 1 1 1 2 1 1 1 1 2 2 3 3 2 2
6 6 5 4 4 3 3 3 4 5 5 5 6 6 6 5 4 4 4 3 3 2 3 3 2 2 2 2 2 2 2 2 2 2 2 2 1 2 2 3 3 4 3
6 6 6 5 5 5 5 4 4 5 5 6 6 6 7 7 7 6 6 4 3 3 4 3 3 3 3 3 3 2 3 3 3 3 3 3 3 2 2 3 4 4 3
5 7 7 6 6 6 5 5 5 6 6 6 7 6 5 5 5 6 5 5 5 4 4 4 4 4 4 4 3 3 3 3 4 4 4 3 3 3 3 3 3 4 3
5 6 6 6 6 6 6 5 6 6 6 6 5 5 6 6 6 6 5 5 4 4 5 5 5 5 4 4 4 3 4 4 4 5 4 4 4 4 4 3 3 3 5
5 5 5 5 5 5 4 4 6 6 5 5 5 5 5 6 6 6 6 5 5 5 5 5 5 5 5 5 4 4 4 5 5 4 5 5 5 4 4 4 4 4 5
6 6 5 4 4 4 4 4 5 4 4 5 5 5 5 5 6 6 6 6 5 6 6 6 6 6 6 5 5 5 5 6 6 5 6 6 6 5 5 4 4 5 5
6 5 5 4 3 4 4 4 4 4 5 5 4 5 5 5 5 6 6 5 6 6 7 6 6 6 6 6 6 6 6 6 7 7 6 7 6 6 5 5 6 5 5
6 5 4 4 4 4 4 4 4 5 4 4 4 4 4 5 6 6 6 6 6 6 6 6 7 7 7 7 7 7 7 7 8 7 8 7 7 7 6 6 6 5 5
6 6 5 5 5 4 4 4 4 4 4 4 4 5 5 5 6 5 5 5 6 6 6 7 7 7 7 7 7 7 7 8 8 8 8 8 8 8 8 7 7 6 6
7 7 6 6 5 4 4 4 4 3 3 4 4 5 4 4 4 5 5 5 6 6 6 7 7 7 7 7 8 8 8 8 8 8 8 8 9 10 9 7 6 6 5
9 8 7 6 6 5 5 4 4 3 3 4 4 4 3 4 4 4 5 6 6 6 6 7 7 7 7 9 11 9 8 8 8 8 7 7 8 10 11 11 10 8 7
9 8 8 7 6 5 5 4 4 3 2 3 3 3 4 4 4 5 5 6 6 6 6 7 7 8 9 11 12 12 8 8 7 7 7 6 7 8 6 8 9 9 10
8 8 7 7 5 4 3 3 2 2 2 2 3 3 4 4 4 4 5 6 5 6 7 7 7 8 9 11 11 11 7 7 7 8 8 8 7 8 8 7 7 7 7
7 7 6 5 4 3 2 1 1 1 2 3 4 4 3 4 4 5 6 5 5 6 6 7 7 7 8 10 10 10 6 6 7 7 8 8 8 10 10 7 7 6 6
5 4 4 4 3 2 0 0 1 2 3 4 4 4 3 4 5 5 5 5 5 6 6 6 6 7 7 9 10 10 6 6 6 6 7 9 9 9 9 7 6 7 6
5 4 3 3 3 2 1 1 2 3 3 3 4 3 3 4 4 4 4 4 5 4 5 6 6 6 7 9 9 9 6 6 6 6 5 5 9 10 10 8 5 7 5
5 3 3 4 4 2 1 1 3 3 3 3 3 3 3 3 3 3 4 3 3 4 4 4 5 5 6 7 8 10 9 8 6 5 5 5 9 9 9 7 6 6 4
4 3 2 4 4 3 2 2 3 3 3 3 3 4 4 4 4 3 3 3 3 3 4 4 4 4 4 5 8 8 8 9 6 5 7 8 8 6 5 5 5 3 2
4 3 2 3 4 4 3 3 3 3 2 3 3 3 3 4 4 4 3 3 3 3 4 4 4 4 4 4 5 5 6 7 6 5 5 5 4 3 3 3 2 2 3
3 2 2 3 4 3 3 4 3 3 3 3 3 3 3 3 4 4 4 4 4 5 5 5 5 5 5 6 7 5 4 4 4 3 1 1 1 2 2 2 2 2 2
3 3 3 3 3 3 4 4 3 3 3 3 3 3 3 3 3 3 4 6 5 6 7 7 6 5 6 6 6 5 5 4 2 0 1 1 2 2 3 3 2 2 2
Wind_Direction
248 243 235 233 227 228 224 214 213 204 181 179 193 197 223 234 266 255 122 92 32 34 35 15 10 24 23 350 353 347 342 345 340 355 330 312 273 248 228 9 25 3 341
248 240 232 225 223 222 224 221 214 211 197 196 199 203 205 207 236 232 196 167 24 319 357 19 334 6 15 350 350 7 352 337 6 14 2 309 309 294 271 242 213 6 4
232 231 228 228 228 229 223 227 221 220 204 192 185 184 180 212 235 230 209 254 266 262 247 248 278 335 146 248 289 328 325 280 311 16 91 198 249 289 272 242 224 249 321
233 228 225 229 231 234 230 228 226 222 205 185 186 196 205 220 231 233 224 255 261 249 252 244 228 226 223 240 258 329 276 223 244 286 309 251 234 244 284 274 239 258 264
231 228 226 227 234 233 230 230 232 217 201 191 194 196 211 221 219 230 220 226 243 246 245 233 224 214 227 234 256 283 265 239 233 238 277 276 289 244 245 260 276 291 259
235 236 238 238 244 239 230 227 235 218 202 198 200 198 203 212 212 229 227 220 223 235 243 237 229 226 230 234 239 248 244 243 247 242 233 225 222 246 263 259 275 283 283
237 232 228 228 232 231 228 229 236 223 208 203 209 209 205 206 212 222 223 216 221 231 226 237 230 231 237 243 246 237 243 242 235 240 238 235 235 239 261 271 282 284 293
247 237 231 228 231 232 231 233 242 227 212 210 215 211 208 212 219 219 224 216 219 225 224 230 232 239 245 249 249 241 246 245 240 246 245 238 242 232 234 247 273 286 278
263 251 243 235 233 231 230 231 242 227 217 214 212 213 212 217 221 216 221 220 221 227 221 221 228 236 238 239 236 239 244 243 248 244 246 242 244 237 234 236 236 247 266
279 271 255 244 241 238 235 237 239 227 222 215 214 222 219 221 223 215 217 217 223 226 222 224 227 233 235 237 235 244 242 240 248 248 240 243 243 240 237 236 240 246 255
281 277 272 262 252 249 237 245 241 230 225 222 223 223 230 229 216 213 219 217 223 222 223 224 226 231 233 232 233 238 241 243 249 250 244 246 241 238 234 236 238 243 249
285 282 283 282 269 263 260 256 242 233 229 226 225 227 233 226 215 219 224 221 224 225 225 223 225 231 234 232 231 237 241 240 244 246 244 247 243 240 234 234 240 243 248
300 298 290 278 273 275 272 267 250 240 233 223 224 232 236 223 221 223 225 223 224 229 228 224 226 231 233 234 236 235 238 239 240 242 241 244 240 247 241 239 242 246 253
297 297 292 283 281 275 271 272 262 247 234 223 223 229 236 232 228 227 228 226 226 227 227 229 231 232 234 237 239 241 240 240 243 244 242 242 238 243 239 241 241 242 246
301 296 291 289 288 285 281 277 263 253 240 228 234 240 245 242 243 235 231 233 232 234 233 232 235 234 234 236 234 235 238 239 242 247 245 245 248 254 249 248 238 234 240
300 298 297 293 286 281 279 281 271 260 246 229 238 246 247 246 245 246 237 233 234 235 234 235 236 239 242 249 252 250 242 243 242 247 249 249 253 258 261 261 259 252 243
299 297 295 285 277 273 270 271 266 261 251 250 245 247 244 246 248 251 249 238 236 238 238 239 239 241 244 251 253 253 249 243 241 241 244 252 252 258 248 258 262 262 262
298 297 295 293 289 282 281 278 272 262 261 266 262 252 252 257 259 255 253 250 245 238 239 244 242 245 249 253 254 256 253 246 242 239 237 242 243 246 243 241 246 253 258
293 291 290 290 289 286 275 269 280 282 277 277 276 265 257 263 262 259 257 255 254 250 243 245 241 243 249 255 256 258 244 243 245 245 241 241 239 248 252 243 241 252 264
311 310 311 317 315 311 307 359 293 287 281 283 285 279 269 262 262 263 265 266 260 257 249 252 245 243 247 253 255 255 240 240 244 245 243 250 249 251 254 240 233 243 253
319 326 334 335 322 321 33 340 305 290 293 301 302 297 291 283 276 277 276 266 263 259 247 251 255 249 250 253 254 254 240 236 243 246 242 244 254 256 259 261 241 248 264
329 335 343 337 336 350 33 335 309 311 319 321 320 317 316 311 306 297 292 277 257 251 245 243 255 252 252 256 255 256 255 255 245 248 245 247 255 257 261 266 261 270 286
323 334 338 335 341 351 7 336 317 322 330 341 336 331 332 331 323 311 297 283 256 244 250 237 243 253 253 255 264 262 261 264 258 249 257 260 263 268 263 262 263 270 249
324 336 345 337 334 346 351 327 324 342 351 348 341 337 341 337 334 324 304 278 254 247 245 245 248 252 255 252 250 243 249 257 259 254 252 262 270 275 273 259 257 247 237
326 332 327 321 323 342 344 336 343 0 4 355 349 346 344 336 333 327 311 295 269 254 249 241 240 243 246 253 258 258 250 243 248 250 210 197 220 239 247 248 247 242 244
324 330 331 328 328 339 340 339 345 2 8 358 350 346 342 338 338 337 335 325 310 298 289 283 275 268 268 274 274 274 277 281 281 184 183 208 228 240 245 245 254 256 252
Height
1492 1494 1495 1496 1497 1499 1500 1501 1502 1503 1504 1505 1506 1507 1508 1509 1510 1511 1512 1513 1514 1514 1514 1515 1515 1515 1515 1515 1516 1517 1517 1518 1518 1518 1518 1520 1521 1521 1523 1524 1525 1526 1527
1487 1488 1490 1491 1492 1494 1495 1496 1497 1499 1500 1501 1502 1503 1504 1505 1506 1507 1508 1509 1510 1511 1511 1512 1512 1512 1512 1513 1513 1514 1514 1514 1515 1515 1515 1515 1517 1517 1518 1519 1520 1522 1523
1482 1483 1485 1486 1487 1489 1490 1491 1492 1494 1495 1497 1498 1499 1500 1501 1502 1503 1504 1505 1506 1507 1508 1508 1509 1509 1509 1510 1510 1511 1511 1511 1512 1513 1514 1513 1512 1513 1513 1514 1516 1517 1518
1478 1478 1480 1481 1482 1484 1485 1487 1488 1489 1491 1492 1493 1494 1495 1495 1497 1499 1500 1501 1502 1503 1504 1505 1505 1506 1506 1507 1507 1508 1508 1509 1509 1510 1510 1512 1511 1510 1508 1510 1511 1513 1514
1474 1474 1475 1476 1478 1479 1480 1482 1483 1484 1485 1487 1489 1490 1490 1491 1493 1495 1496 1496 1497 1499 1500 1501 1501 1501 1502 1503 1504 1504 1505 1505 1506 1506 1506 1507 1508 1507 1507 1505 1506 1508 1509
1470 1471 1472 1472 1473 1474 1475 1477 1477 1478 1480 1482 1483 1485 1485 1487 1488 1489 1491 1491 1493 1494 1495 1496 1497 1497 1498 1499 1499 1500 1501 1501 1502 1503 1503 1503 1504 1504 1504 1502 1501 1502 1503
1466 1466 1467 1467 1468 1469 1469 1470 1471 1473 1474 1476 1478 1479 1481 1482 1483 1484 1485 1486 1487 1489 1490 1491 1492 1493 1494 1495 1495 1495 1496 1497 1498 1499 1500 1500 1500 1501 1501 1500 1499 1498 1498
1463 1463 1463 1464 1464 1464 1464 1465 1466 1467 1469 1470 1472 1474 1475 1477 1478 1479 1480 1481 1482 1483 1485 1486 1487 1488 1489 1490 1490 1491 1492 1493 1493 1494 1495 1495 1496 1497 1497 1497 1497 1495 1494
1459 1459 1459 1460 1459 1459 1459 1460 1460 1461 1463 1465 1466 1468 1469 1471 1472 1473 1474 1475 1476 1478 1479 1481 1481 1482 1483 1484 1485 1486 1487 1488 1488 1489 1490 1490 1491 1492 1492 1493 1494 1494 1491
1456 1456 1455 1455 1455 1454 1455 1455 1455 1456 1457 1459 1460 1462 1463 1465 1466 1467 1468 1469 1471 1472 1473 1475 1476 1477 1478 1479 1480 1480 1481 1482 1483 1483 1484 1485 1486 1486 1487 1488 1489 1489 1489
1452 1452 1451 1451 1451 1450 1450 1450 1450 1450 1451 1453 1454 1456 1457 1458 1459 1460 1462 1463 1465 1466 1467 1469 1469 1470 1472 1473 1474 1474 1475 1476 1477 1477 1478 1479 1480 1481 1482 1483 1483 1483 1484
1451 1449 1448 1447 1446 1445 1444 1444 1444 1444 1445 1447 1448 1450 1451 1452 1453 1454 1456 1458 1459 1460 1462 1462 1463 1464 1465 1467 1468 1468 1469 1470 1471 1472 1473 1474 1475 1475 1476 1477 1477 1477 1477
1447 1445 1444 1443 1442 1441 1440 1439 1440 1440 1441 1442 1443 1444 1445 1446 1447 1448 1450 1452 1453 1454 1455 1456 1457 1458 1459 1460 1461 1463 1463 1464 1465 1466 1467 1468 1469 1469 1470 1471 1471 1471 1472
1444 1442 1440 1439 1438 1437 1436 1435 1435 1436 1437 1438 1439 1439 1439 1440 1442 1443 1444 1446 1447 1448 1449 1450 1451 1452 1453 1454 1455 1457 1457 1458 1459 1460 1461 1462 1463 1463 1464 1465 1465 1466 1466
1440 1438 1437 1435 1434 1433 1432 1432 1431 1432 1432 1432 1433 1433 1434 1435 1436 1437 1439 1440 1441 1442 1443 1444 1445 1445 1446 1448 1449 1450 1451 1452 1453 1454 1455 1455 1456 1457 1458 1459 1459 1460 1460
1436 1434 1432 1431 1429 1428 1428 1427 1427 1427 1428 1428 1428 1428 1429 1430 1431 1432 1433 1434 1435 1436 1437 1437 1438 1439 1440 1441 1443 1444 1445 1446 1447 1447 1448 1449 1450 1451 1452 1453 1454 1454 1454
1432 1430 1428 1426 1425 1424 1424 1423 1423 1423 1423 1422 1423 1423 1424 1425 1426 1426 1427 1427 1428 1430 1430 1431 1432 1432 1433 1435 1437 1438 1440 1440 1441 1441 1442 1442 1443 1445 1445 1446 1447 1447 1448
1428 1426 1424 1422 1421 1420 1420 1419 1419 1419 1419 1419 1419 1420 1420 1420 1420 1421 1421 1422 1423 1423 1424 1425 1425 1426 1427 1429 1430 1432 1433 1434 1434 1435 1436 1436 1437 1438 1438 1439 1440 1440 1441
1425 1423 1421 1418 1417 1416 1415 1415 1415 1415 1415 1415 1415 1415 1415 1415 1415 1415 1416 1416 1417 1417 1418 1418 1419 1420 1421 1423 1424 1426 1426 1427 1427 1428 1429 1430 1430 1431 1433 1434 1434 1434 1434
1422 1419 1417 1415 1413 1412 1412 1412 1412 1412 1412 1412 1411 1411 1411 1411 1410 1410 1410 1410 1411 1411 1412 1413 1414 1415 1415 1417 1418 1420 1420 1420 1421 1422 1423 1424 1425 1425 1427 1427 1427 1427 1428
1420 1417 1415 1413 1411 1410 1410 1410 1410 1410 1410 1409 1408 1407 1407 1406 1406 1405 1405 1405 1405 1406 1407 1408 1409 1410 1410 1411 1413 1414 1415 1415 1416 1416 1416 1417 1419 1420 1421 1421 1422 1422 1423
1417 1415 1413 1411 1410 1409 1409 1408 1408 1407 1407 1406 1405 1403 1402 1402 1401 1400 1400 1400 1401 1401 1402 1402 1403 1404 1405 1406 1407 1408 1410 1410 1411 1411 1411 1412 1413 1414 1415 1415 1416 1417 1417
1416 1414 1412 1410 1409 1408 1408 1406 1406 1405 1404 1402 1401 1400 1398 1398 1397 1397 1396 1396 1397 1397 1397 1397 1398 1399 1400 1401 1402 1403 1404 1405 1406 1406 1406 1407 1408 1409 1409 1410 1410 1411 1411
1414 1412 1410 1409 1408 1407 1406 1405 1404 1403 1401 1399 1398 1397 1395 1394 1394 1394 1393 1393 1392 1392 1392 1393 1393 1394 1395 1396 1397 1397 1399 1400 1400 1401 1401 1402 1403 1404 1404 1404 1405 1405 1405
1412 1411 1409 1408 1407 1406 1404 1404 1402 1401 1399 1398 1396 1395 1394 1393 1391 1391 1390 1389 1389 1389 1389 1389 1389 1390 1390 1391 1393 1394 1394 1395 1396 1396 1396 1397 1398 1398 1399 1399 1399 1400 1400
1412 1410 1409 1407 1406 1405 1403 1403 1401 1400 1398 1396 1395 1394 1392 1391 1390 1388 1387 1386 1387 1386 1386 1386 1387 1386 1387 1388 1389 1390 1391 1391 1392 1392 1391 1392 1393 1394 1394 1394 1395 1395 1396